Location: Karcze
(52.0945°N, 22.4786°E)
Time: 07:32:48
(UTC+00:00)

Transit 2A Rocket - Pass Details

Date: 03 August 2021
Orbit: 586 x 917 km, 66.7° (Epoch: 24 September)

Event Time Altitude Azimuth Distance (km) Brightness Sun altitude
Rises 17:38:22 0° 315° (NW) 3,124 9.7 4.5°
Reaches altitude 10° 17:41:13 10° 332° (NNW) 2,265 8.4 4.1°
Maximum altitude 17:45:08 21° 20° (NNE) 1,717 6.9 3.5°
Drops below altitude 10° 17:49:17 10° 69° (ENE) 2,429 7.2 2.9°
Sets 17:52:27 0° 85° (E) 3,420 7.8 2.5°
